This is the latest recevied weather packets stored in our database for station/object WY7ATH-2. If no packets are shown the sender has not sent any weather packets the latest 10 day(s).
| Time | Temp. | Humidity | Pressure | Rain* | Wind** | Luminosity | Snow |
|---|---|---|---|---|---|---|---|
| 1788301750 | 26.11° C | - | - | 5.84 mm | 8.05 m/s, 233° | - | - |
| 1788301153 | 26.11° C | - | - | 5.84 mm | 1.79 m/s, 225° | - | - |
| 1788300556 | 26.67° C | - | - | 5.84 mm | 6.26 m/s, 245° | - | - |
| 1788298165 | 27.78° C | - | - | 9.91 mm | 5.36 m/s, 193° | - | - |
| 1788294579 | 27.22° C | - | - | 14.48 mm | 6.71 m/s, 239° | - | - |
| 1788292191 | 26.67° C | - | - | 15.49 mm | 8.49 m/s, 225° | - | - |
| 1788289799 | 25° C | - | - | 15.49 mm | 8.05 m/s, 239° | - | - |
| 1788289202 | 25.56° C | - | - | 15.49 mm | 8.05 m/s, 287° | - | - |
| 1788286810 | 24.44° C | - | - | 22.1 mm | 4.47 m/s, 307° | - | - |
| 1788285616 | 26.11° C | - | - | 22.1 mm | 7.15 m/s, 207° | - | - |
| 1788285019 | 25° C | - | - | 22.86 mm | 7.6 m/s, 283° | - | - |
| 1788284419 | 24.44° C | - | - | 22.86 mm | 8.94 m/s, 229° | - | - |
| 1788281433 | 23.89° C | - | - | 12.45 mm | 7.6 m/s, 231° | - | - |
| 1788280236 | 23.33° C | - | - | 12.45 mm | 8.94 m/s, 162° | - | - |
| 1788278444 | 23.89° C | - | - | 12.45 mm | 3.13 m/s, 270° | - | - |
| 1788277848 | 22.78° C | - | - | 3.81 mm | 5.36 m/s, 250° | - | - |
| 1788277247 | 21.67° C | - | - | 3.81 mm | 3.13 m/s, 294° | - | - |
| 1788276649 | 18.33° C | - | - | 3.81 mm | 2.24 m/s, 312° | - | - |
| 1788276052 | 18.33° C | - | - | 3.81 mm | 3.13 m/s, 281° | - | - |
| 1788274261 | 17.22° C | - | - | 1.02 mm | 4.47 m/s, 253° | - | - |
| 1788273661 | 17.22° C | - | - | 1.02 mm | 5.36 m/s, 270° | - | - |
| 1788273064 | 17.22° C | - | - | 1.02 mm | 6.26 m/s, 285° | - | - |
| 1788272466 | 17.22° C | - | - | 1.02 mm | 5.36 m/s, 278° | - | - |
| 1788271870 | 16.67° C | - | - | 1.02 mm | 2.68 m/s, 262° | - | - |
| 1788271273 | 15.56° C | - | - | 1.02 mm | 0 m/s | - | - |
* Rain latest hour (hover to see other rain measurements)
** Current wind speed in m/s (hover to see current wind gust speed)